CAPE
0 0 0 0 0 0 0 0 0 0 0 0 0 0 0 0 0 1 0 0 0 0 1 2 0 0 0 0 0 0 1 7 6 2 4 4 1 7 0 0 0 0 0
0 0 0 0 0 0 0 0 0 0 0 0 0 0 0 0 3 1 0 0 0 0 0 1 1 0 0 0 0 0 0 0 7 7 4 5 2 0 15 3 0 0 0
0 0 0 0 0 0 0 0 0 0 0 0 0 0 0 0 0 1 0 0 0 0 0 0 1 0 0 0 0 1 0 0 0 12 9 7 10 13 11 0 0 0 0
0 0 0 0 0 0 0 0 0 0 0 0 0 0 0 0 0 0 0 0 0 0 1 1 2 1 1 1 3 3 3 1 1 4 8 6 12 23 22 0 0 0 0
0 0 0 0 0 0 0 0 0 0 0 0 0 0 0 0 0 2 2 0 0 0 1 1 2 7 15 11 10 7 7 9 3 3 7 16 8 34 46 1 1 0 0
0 0 0 0 0 0 0 0 0 0 0 0 0 0 0 0 0 0 0 0 0 0 0 0 1 7 4 10 9 14 14 9 6 8 7 15 6 31 3 6 1 0 1
0 0 0 0 0 0 0 0 0 0 0 0 0 0 0 0 0 0 0 0 0 0 1 0 1 1 8 2 2 3 3 5 4 4 6 3 6 23 22 2 3 0 0
0 0 0 0 0 0 0 0 0 0 0 0 0 0 0 0 0 0 0 0 0 0 1 1 1 3 5 5 1 1 3 3 3 3 2 0 1 1 23 7 2 0 0
0 0 0 0 0 0 0 0 0 0 0 0 0 0 0 0 0 0 0 0 0 0 0 1 8 3 3 2 2 2 3 1 18 0 0 0 0 0 0 12 5 12 1
0 0 0 0 0 0 0 0 0 0 0 0 0 0 0 0 0 0 0 0 0 0 0 1 6 3 1 1 1 2 3 3 4 8 14 0 0 0 1 4 4 1 1
0 0 0 0 0 0 0 0 0 0 0 0 0 0 0 0 0 0 0 0 0 0 0 0 4 0 1 0 2 2 1 1 1 1 0 0 2 1 4 1 0 0 0
0 0 0 0 0 0 0 0 0 0 0 0 0 0 0 0 0 0 0 0 0 0 0 0 4 0 0 1 3 5 0 2 2 2 1 2 1 2 2 1 0 0 0
0 0 4 0 0 0 0 0 0 0 0 0 0 0 0 0 0 0 0 0 0 0 0 0 0 0 0 2 2 3 4 3 2 2 4 2 1 1 2 3 3 0 0
0 0 0 2 0 0 0 0 0 0 0 0 0 0 0 0 0 0 0 0 0 0 0 0 0 0 0 0 1 1 4 6 5 4 5 4 1 2 1 2 2 1 0
0 0 0 0 0 0 0 0 0 0 0 0 0 0 0 0 0 0 0 0 0 0 0 0 0 0 0 0 0 1 2 2 3 5 5 6 4 1 1 0 0 0 0
0 0 0 0 0 0 0 0 0 2 0 0 0 0 0 0 0 0 0 0 0 0 0 0 0 0 0 0 1 1 1 2 2 3 2 3 2 2 2 0 0 0 0
0 0 0 0 0 0 0 0 0 0 0 0 0 0 0 0 0 0 0 0 0 0 0 0 0 0 0 0 0 0 0 2 2 2 2 1 1 3 1 3 3 0 1
1 1 1 0 0 0 0 0 0 0 0 0 0 0 0 0 0 0 0 0 0 0 0 0 0 0 0 0 0 0 0 0 1 1 1 2 1 0 1 1 0 0 1
4 6 15 1 1 0 0 0 0 0 0 0 0 0 0 0 0 0 0 0 0 0 1 0 0 0 0 0 0 0 0 0 0 1 1 0 0 0 0 0 0 0 0
0 10 2 0 1 0 0 0 0 0 0 0 0 0 0 0 0 0 0 0 0 0 0 0 0 0 0 0 0 0 0 0 0 0 0 1 0 0 0 0 0 0 0
0 0 0 0 0 0 0 0 0 0 0 0 0 0 0 0 0 0 0 0 0 0 0 0 0 0 0 0 0 0 0 0 0 0 0 0 0 1 0 0 0 0 0
7 0 0 0 1 0 0 0 0 0 0 0 0 0 0 0 0 0 0 0 0 0 0 0 0 3 0 0 0 0 0 0 0 0 0 0 0 0 0 0 0 0 0
0 0 0 0 3 0 0 0 0 0 0 0 0 0 0 0 0 0 0 0 0 0 0 0 0 0 6 0 0 0 1 0 0 0 0 0 0 0 1 1 1 0 0
0 0 0 0 0 0 0 0 0 0 0 0 0 0 0 0 0 0 0 0 0 0 0 0 0 0 7 2 0 0 0 0 0 0 0 0 0 0 0 0 0 0 0
0 0 0 0 0 0 0 0 0 0 0 0 0 0 0 0 0 0 0 0 0 0 0 0 0 0 0 0 0 1 1 0 0 0 0 0 0 0 0 0 0 0 0
0 0 0 0 0 0 0 0 0 0 0 0 0 0 0 0 0 0 0 0 0 0 0 0 0 0 0 0 1 1 0 1 0 1 0 0 0 0 0 0 0 0 0
CIN
0 0 0 0 0 0 0 0 0 0 0 0 0 0 0 0 -2 -1 -2 0 0 -0 -0 -0 -0 -0 -0 -0 -0 -0 -0 -0 0 -0 -1 -2 -1 -3 0 0 0 0 0
0 0 0 0 0 0 0 0 0 0 0 0 0 0 0 0 -1 -1 0 0 0 -0 0 -0 -0 -0 0 -1 0 0 0 -0 0 0 -0 -0 -2 0 -2 -19 0 0 0
0 0 0 0 0 0 0 0 0 0 0 0 -0 0 0 0 0 -2 -0 0 0 -0 -0 -0 0 0 0 0 0 -1 -1 0 0 0 0 -0 -2 -2 -3 0 0 0 0
0 0 0 0 0 0 0 0 0 0 0 0 -3 0 0 0 0 0 0 0 0 0 -0 -0 0 0 0 0 -0 -0 -0 -0 -0 0 0 -0 -0 -2 -2 0 0 0 0
0 0 0 0 0 0 0 0 0 0 0 0 0 0 0 0 0 -1 -0 0 0 0 -0 -0 0 0 0 0 0 -0 -0 0 -0 0 0 0 -0 -0 -0 -8 0 0 0
0 0 0 0 0 0 0 0 0 0 0 0 0 0 0 0 0 0 0 0 0 -0 -0 -0 0 0 0 0 0 0 -0 0 0 0 -0 0 -0 -0 -9 -10 0 0 0
0 0 0 0 0 0 0 0 0 0 0 0 0 0 0 0 0 0 0 0 0 -0 -0 0 0 0 0 0 0 0 0 0 0 -0 0 0 -3 -2 -7 -33 -25 0 0
0 0 0 0 0 0 0 0 0 0 0 0 0 0 0 0 0 0 0 0 0 -0 -0 0 0 0 0 0 0 0 0 0 0 0 0 -0 -0 -0 -11 -13 -38 -42 0
0 0 0 0 0 0 0 0 0 0 0 0 0 0 0 0 0 0 0 0 0 0 0 -0 0 0 0 0 0 0 0 0 -0 0 0 0 0 0 0 -33 -3 -11 0
0 0 0 0 0 0 0 0 0 0 0 0 0 0 0 0 0 0 0 0 0 0 0 -1 -0 0 0 0 0 0 0 0 -6 -18 -21 0 0 0 -0 -35 -20 0 0
-0 0 0 0 0 0 0 0 0 0 0 0 0 0 0 0 0 0 0 0 0 0 0 0 -1 -0 0 0 -0 0 0 0 0 0 0 0 0 0 -2 -6 0 0 0
-0 -1 0 0 0 0 0 0 0 0 0 0 0 0 0 0 0 0 0 0 0 0 0 0 -2 0 0 0 0 -1 0 0 0 0 0 0 0 0 0 0 0 0 0
0 -0 -8 0 0 0 0 0 0 0 0 0 0 0 0 0 0 0 0 0 0 0 0 0 -0 0 -0 0 0 0 0 -0 0 0 0 0 0 0 0 0 0 0 0
0 0 0 -10 0 0 -8 0 0 0 0 0 0 0 0 0 0 0 0 0 0 0 0 0 0 0 0 -0 0 0 0 -0 0 0 0 -0 0 0 0 0 0 0 0
0 0 0 0 0 0 0 0 0 0 0 0 0 0 0 0 0 0 0 0 0 0 0 0 0 0 0 0 -0 0 0 0 0 -0 -0 -0 0 0 0 0 0 0 0
0 0 0 0 0 0 0 0 0 -6 -0 0 0 0 0 0 0 0 0 0 0 0 0 0 0 0 0 0 -0 0 0 0 0 0 0 -0 0 -0 -0 -2 0 0 -0
0 0 0 0 0 0 0 0 0 -0 0 0 0 0 0 0 0 0 0 0 0 0 0 0 0 0 0 0 0 0 -0 0 0 0 0 -0 0 -0 0 -0 -1 -2 -2
-25 -14 -6 0 0 -15 -8 0 0 -3 0 0 -2 0 0 0 0 0 0 0 0 0 0 0 0 0 0 0 0 0 0 0 0 0 0 0 0 -0 0 -0 -0 0 -1
-13 -15 -5 -4 -5 -11 0 0 0 0 0 0 0 0 0 0 0 0 0 0 0 0 -21 0 0 0 0 0 0 0 0 0 0 0 0 0 0 0 -0 -0 0 0 0
-0 -8 -2 -2 -3 0 0 0 0 0 0 0 0 0 0 0 0 0 0 0 0 0 0 -3 0 0 0 0 0 0 0 0 0 0 0 0 0 0 0 0 0 0 0
-1 -1 0 0 -1 0 0 0 0 0 0 0 0 0 0 0 0 0 0 0 0 0 0 0 -17 0 0 0 0 0 0 0 0 0 0 0 0 0 0 0 0 0 0
-22 0 0 -9 -15 0 0 0 0 0 0 0 0 0 0 0 0 0 0 0 0 0 0 0 0 -9 0 0 0 0 0 0 0 0 0 0 0 0 0 0 0 0 0
0 0 -12 -7 -5 0 0 0 0 0 0 0 0 0 0 0 0 0 0 0 0 0 0 0 0 -2 -22 0 0 0 0 0 0 0 0 0 0 0 0 0 0 0 0
0 0 0 0 0 0 0 0 0 0 0 0 0 0 0 0 0 0 0 0 0 0 0 0 0 0 -17 -18 0 0 0 0 0 0 0 0 0 0 0 0 0 0 0
0 0 0 0 0 0 0 0 0 0 0 0 0 0 0 0 0 0 0 0 0 0 0 0 0 0 -6 -1 0 -0 0 0 0 0 0 0 0 0 0 0 0 0 0
0 0 0 0 0 0 0 0 0 0 0 0 0 0 0 0 0 0 0 0 0 0 0 0 0 0 0 0 0 0 0 0 0 0 0 0 0 0 -0 0 0 0 0
Wind_Speed
24 22 24 24 26 26 28 30 30 32 33 34 31 36 35 38 38 39 38 44 46 46 46 47 48 48 47 46 45 46 47 47 57 61 53 52 52 50 43 36 32 28 27
24 22 24 25 24 26 29 31 30 33 34 35 33 35 36 39 39 39 42 46 49 50 50 50 51 49 51 49 49 49 48 48 52 60 56 54 53 53 48 37 36 32 29
23 23 24 24 23 25 29 31 32 33 34 35 35 35 38 40 41 40 44 47 49 49 51 51 52 53 53 52 52 52 50 49 50 54 58 52 51 46 43 36 34 32 29
22 22 23 25 21 25 28 30 33 34 34 36 36 36 39 41 40 44 46 48 50 49 50 50 52 53 54 56 56 55 53 52 50 52 54 53 50 45 42 39 37 36 33
21 22 22 24 22 24 27 30 34 34 35 37 36 36 40 40 41 45 48 49 51 49 49 50 51 52 55 56 58 58 57 55 53 51 52 50 48 43 40 37 35 33 32
21 22 23 25 26 25 26 31 35 35 35 37 37 40 41 41 42 45 48 49 49 48 51 52 53 53 54 59 60 62 57 58 57 53 51 50 48 44 37 38 35 38 40
22 23 24 26 27 28 27 32 34 34 35 37 37 42 41 43 43 46 48 47 48 47 49 53 55 54 56 58 64 63 60 50 45 47 51 51 48 43 39 36 38 35 37
22 24 25 27 28 29 28 31 32 31 35 36 37 41 41 42 44 45 48 46 46 47 47 50 54 55 56 59 61 55 49 33 32 35 41 44 46 43 38 35 34 37 37
23 24 25 27 29 29 29 29 30 30 31 32 36 39 40 42 43 45 47 46 46 47 46 48 52 53 56 55 54 51 46 35 30 23 26 32 39 47 43 36 34 33 36
23 25 25 26 29 29 29 29 28 27 29 29 35 37 39 42 42 45 45 44 46 46 46 47 49 51 52 51 50 48 44 39 36 32 32 32 36 39 40 41 30 31 30
24 24 24 26 26 25 27 27 28 27 28 30 34 36 37 40 40 44 44 43 44 46 46 45 48 47 47 46 46 43 41 37 32 30 24 26 26 27 29 26 25 25 27
26 24 21 26 23 24 26 28 30 28 30 32 36 38 37 39 40 43 42 41 43 44 45 41 45 45 44 44 41 41 38 35 28 20 16 11 11 13 15 15 15 15 15
25 26 23 22 25 26 26 27 32 32 32 34 38 39 39 39 42 44 43 40 41 40 39 40 44 42 40 36 36 37 37 25 22 15 13 9 4 7 7 8 9 7 8
20 24 27 24 29 33 26 26 32 33 31 34 39 39 38 41 44 43 43 41 41 39 41 40 40 40 37 34 33 31 25 24 18 13 10 9 7 1 1 4 8 12 11
17 20 24 25 28 30 31 26 30 28 26 31 37 35 35 38 43 43 44 43 41 36 39 41 41 39 35 33 30 27 26 25 21 19 15 14 12 9 5 6 6 7 9
16 18 20 23 24 27 30 32 32 32 26 25 31 29 26 27 33 43 44 41 39 33 37 39 41 38 34 31 28 26 25 23 20 19 18 17 14 12 9 9 9 9 13
16 17 18 20 22 25 28 31 35 31 32 28 29 26 22 24 29 39 41 38 38 32 35 37 38 37 33 30 29 27 24 24 22 21 19 18 16 13 12 11 10 9 9
18 19 19 18 19 22 26 29 29 32 36 39 33 28 23 24 26 31 39 36 36 33 32 34 36 36 33 31 27 26 24 22 21 20 18 18 17 15 13 12 12 11 11
20 17 19 19 22 21 27 27 29 34 35 34 32 29 27 27 29 34 37 35 34 34 31 32 33 34 33 28 28 26 24 23 21 21 20 19 18 16 15 14 14 13 13
15 15 23 24 20 26 27 26 32 32 31 32 33 30 34 35 36 35 34 35 34 33 31 31 31 31 32 30 23 24 24 23 23 22 21 20 18 17 17 16 16 16 16
17 19 17 18 24 26 23 28 30 30 33 32 32 31 34 35 34 36 34 34 34 31 32 31 29 29 30 30 27 22 19 21 22 22 22 21 19 18 17 17 17 16 15
18 18 18 20 22 22 26 28 30 33 34 34 31 33 34 33 34 35 33 34 32 31 32 30 29 28 29 29 27 25 23 21 19 19 20 21 20 19 18 17 17 16 16
20 20 20 21 22 26 28 30 32 34 34 32 33 33 33 34 34 33 33 34 32 32 32 29 29 29 27 28 27 27 25 24 24 24 22 20 20 20 19 18 17 17 17
20 20 20 23 25 28 30 32 34 33 33 32 33 33 33 34 34 32 34 34 33 32 30 29 29 29 28 27 27 27 27 27 26 25 24 24 22 22 22 21 20 19 19
19 19 22 24 26 29 30 31 32 32 33 32 31 32 34 33 32 33 33 34 33 32 30 28 29 29 29 28 29 29 29 29 26 25 24 23 23 24 24 23 22 21 21
18 20 21 23 25 27 27 28 30 31 33 32 30 32 33 32 32 33 34 35 33 31 30 30 30 29 30 30 29 30 31 30 27 25 25 24 24 24 23 23 23 22 21
Wind_Direction
346 350 351 351 352 352 348 345 344 344 342 338 341 338 339 337 335 332 333 330 327 325 323 320 318 316 312 309 305 301 296 291 284 281 282 280 279 279 275 268 268 262 254
345 349 349 349 350 351 349 347 346 344 342 341 341 342 341 338 336 333 331 330 327 324 322 320 317 316 312 309 305 300 296 292 287 283 280 279 276 274 273 262 261 261 257
346 348 348 349 351 352 350 349 346 344 343 341 341 343 341 340 336 335 331 330 329 326 324 321 319 316 312 309 305 300 295 291 288 284 280 279 276 275 269 261 257 252 251
347 348 349 349 355 353 352 351 348 345 343 342 341 343 341 339 338 335 332 330 328 328 326 324 321 317 314 310 305 300 295 289 286 283 280 277 274 272 265 256 252 253 251
349 350 351 350 354 354 354 353 350 346 344 342 343 344 342 341 339 335 333 331 329 328 328 327 324 320 316 313 307 301 294 288 283 279 278 275 270 267 261 253 253 249 247
351 349 350 350 349 351 354 351 349 348 346 344 344 343 342 341 339 338 336 334 333 330 328 328 326 322 318 314 311 303 295 285 278 274 273 271 266 263 258 256 249 247 252
348 347 346 347 347 348 351 348 349 348 347 345 347 344 344 343 341 340 337 337 336 333 331 329 328 327 324 320 313 304 294 290 273 270 268 265 266 260 258 249 247 246 252
348 347 347 347 345 344 348 347 349 351 348 349 350 349 347 347 344 342 338 339 339 337 335 334 333 328 327 323 319 312 305 302 287 274 266 265 259 262 253 251 249 252 253
347 346 347 347 346 344 348 348 349 352 353 354 353 352 351 349 347 345 342 341 342 340 339 338 338 334 325 323 325 321 313 304 301 283 272 264 261 252 256 249 246 245 249
347 346 347 348 347 345 349 350 354 355 355 356 353 354 353 350 350 348 346 346 344 343 342 341 341 332 327 327 330 329 320 311 301 293 278 268 260 250 249 250 244 242 242
345 349 351 352 351 353 353 354 353 355 354 352 351 351 351 351 351 349 348 348 348 345 344 345 338 326 327 328 330 334 329 328 317 298 286 267 256 249 243 243 238 236 234
344 350 355 356 359 357 354 354 354 354 352 350 348 348 349 349 350 350 351 350 348 348 346 352 341 326 329 333 332 336 337 344 336 325 310 271 238 233 229 227 228 234 242
348 348 354 358 359 357 355 355 354 352 350 349 347 346 345 347 347 347 348 351 350 352 356 355 344 327 331 328 332 336 351 336 336 334 325 285 269 237 213 218 217 217 230
357 351 348 355 349 347 355 357 355 352 353 351 348 346 345 342 341 345 345 347 347 350 352 357 355 335 332 330 332 335 333 336 336 323 316 328 345 238 229 236 232 239 250
356 355 351 349 347 347 350 353 354 356 355 354 352 352 350 346 342 340 338 338 342 349 347 354 350 337 331 329 327 328 332 334 333 335 331 338 345 351 321 293 288 269 262
344 347 350 348 349 349 349 349 351 354 356 357 356 357 359 358 355 337 332 335 339 350 350 351 347 339 331 327 324 322 326 327 325 327 330 341 335 335 318 309 306 296 268
331 333 338 344 345 347 349 349 348 355 357 357 355 1 4 2 1 347 332 340 336 350 347 349 349 342 333 325 325 324 322 324 323 329 325 329 328 318 316 312 313 303 291
323 329 327 336 340 343 350 351 354 354 352 351 359 7 9 3 3 1 342 341 331 342 344 346 349 348 338 332 323 322 319 319 322 326 325 329 324 321 316 314 307 299 294
322 326 330 341 335 344 347 353 355 353 352 355 1 6 9 7 5 358 348 337 332 330 339 343 346 349 342 330 330 326 323 320 319 322 325 323 320 316 309 301 294 290 293
352 349 337 335 341 342 345 349 350 353 355 356 358 2 1 1 358 357 355 342 335 330 333 331 341 345 345 337 316 319 324 325 324 323 320 316 310 307 302 297 291 287 284
354 353 358 350 345 347 352 347 351 354 353 356 357 1 0 1 360 353 352 345 331 335 330 323 325 340 340 337 327 310 300 309 318 320 322 318 310 305 304 301 294 294 289
1 358 358 353 354 355 352 350 354 350 351 352 358 358 358 1 360 353 352 340 331 334 327 321 318 330 335 337 328 315 306 302 296 296 294 299 299 301 298 295 292 286 284
1 360 1 2 359 353 353 352 349 348 350 354 354 355 357 357 356 356 349 338 336 325 321 316 314 317 340 338 334 323 320 311 306 301 287 273 267 269 277 282 285 285 282
4 9 12 5 1 358 354 350 348 350 350 353 354 355 355 355 354 355 345 337 329 317 313 312 313 309 329 338 333 329 325 312 300 298 293 280 261 260 258 262 264 264 263
14 17 11 8 4 360 357 355 356 355 354 355 358 357 352 353 356 352 351 332 318 315 308 304 307 306 323 332 328 325 308 301 291 286 287 288 278 269 267 268 269 271 271
18 11 12 10 6 4 5 3 1 1 356 356 1 359 356 355 353 350 346 328 315 307 306 306 305 306 312 316 319 309 307 302 301 296 278 268 268 270 274 272 274 277 279